Retour au catalogue

ETS 6 DEB

ActifHEO
NORAD 23248·DEBRIS·🇯🇵 Japan

Lancé Aug 28, 1994 depuis Tanegashima Space Center

Loading…

Prochains Passages (prochaines 24 heures)

TLE

FraisSource: Space-Track

Époque: Sep 14, 2026, 12:47 UTC

1 23248U 94056C   26257.53306947 -.00000146  00000-0  00000-0 0  9994
2 23248  12.1352 134.4595 5149319  13.1820 215.7052  1.70301003199223

Suivez ETS 6 DEB en temps réel avec AllMySat

Download on the App Store